Time,TemperatureF,DewpointF,PressureIn,WindDirection,WindDirectionDegrees,WindSpeedMPH,WindSpeedGustMPH,Humidity,HourlyPrecipIn,Conditions,Clouds,dailyrainin,SoftwareType,DateUTC
2013-09-17 00:01:00,43.4,40.7,30.32,West,265,0.0,3.0,90,0.00,RA,,0.00,WeatherDisplay:10.37,2013-09-17 04:01:00,
2013-09-17 00:11:00,43.1,40.4,30.33,West,271,1.0,5.0,90,0.00,CLR,,0.00,WeatherDisplay:10.37,2013-09-17 04:11:00,
2013-09-17 00:31:00,42.7,40.3,30.33,West,269,1.0,5.0,91,0.00,CLR,,0.00,WeatherDisplay:10.37,2013-09-17 04:31:00,
2013-09-17 00:41:00,42.6,40.2,30.34,West,269,0.0,3.0,91,0.00,CLR,,0.00,WeatherDisplay:10.37,2013-09-17 04:41:00,
2013-09-17 00:51:00,42.5,40.1,30.34,West,280,0.0,3.0,91,0.00,CLR,,0.00,WeatherDisplay:10.37,2013-09-17 04:51:00,
2013-09-17 01:01:00,42.4,40.2,30.34,WNW,282,1.0,5.0,92,0.00,CLR,,0.00,WeatherDisplay:10.37,2013-09-17 05:01:00,
2013-09-17 01:11:00,42.4,40.2,30.35,West,279,0.0,3.0,92,0.00,FEW,,0.00,WeatherDisplay:10.37,2013-09-17 05:11:00,
2013-09-17 01:21:00,42.4,40.2,30.35,West,281,1.0,3.0,92,0.00,FEW,,0.00,WeatherDisplay:10.37,2013-09-17 05:21:00,
2013-09-17 01:31:00,42.4,40.2,30.35,WNW,288,0.0,5.0,92,0.00,FEW,,0.00,WeatherDisplay:10.37,2013-09-17 05:31:00,
2013-09-17 01:41:00,42.4,40.5,30.35,WNW,294,1.0,5.0,93,0.00,FEW,,0.00,WeatherDisplay:10.37,2013-09-17 05:41:00,
2013-09-17 01:51:00,42.3,40.4,30.35,WNW,283,0.0,5.0,93,0.00,FEW,,0.00,WeatherDisplay:10.37,2013-09-17 05:51:00,
2013-09-17 02:01:00,42.3,40.4,30.35,WNW,285,0.0,2.0,93,0.00,FEW,,0.00,WeatherDisplay:10.37,2013-09-17 06:01:00,
2013-09-17 02:11:00,42.2,40.3,30.36,WNW,285,0.0,0.0,93,0.00,CLR,,0.00,WeatherDisplay:10.37,2013-09-17 06:11:00,
2013-09-17 02:21:00,42.0,39.8,30.36,WNW,285,0.0,0.0,92,0.00,CLR,,0.00,WeatherDisplay:10.37,2013-09-17 06:21:00,
2013-09-17 02:31:00,41.7,39.5,30.36,WNW,285,0.0,0.0,92,0.00,CLR,,0.00,WeatherDisplay:10.37,2013-09-17 06:31:00,
2013-09-17 02:41:00,41.5,39.3,30.36,WNW,285,0.0,0.0,92,0.00,CLR,,0.00,WeatherDisplay:10.37,2013-09-17 06:41:00,
2013-09-17 02:51:00,41.3,39.2,30.36,WNW,285,0.0,0.0,92,0.00,CLR,,0.00,WeatherDisplay:10.37,2013-09-17 06:51:00,
2013-09-17 03:01:00,41.0,38.9,30.36,WNW,285,0.0,0.0,92,0.00,CLR,,0.00,WeatherDisplay:10.37,2013-09-17 07:01:00,
2013-09-17 03:11:00,40.8,38.6,30.36,WNW,285,0.0,0.0,92,0.00,CLR,,0.00,WeatherDisplay:10.37,2013-09-17 07:11:00,
2013-09-17 03:21:00,40.6,38.5,30.36,WNW,285,0.0,2.0,92,0.00,CLR,,0.00,WeatherDisplay:10.37,2013-09-17 07:21:00,
2013-09-17 03:31:00,40.4,38.3,30.37,WNW,285,0.0,3.0,92,0.00,CLR,,0.00,WeatherDisplay:10.37,2013-09-17 07:31:00,
2013-09-17 03:41:00,40.4,38.5,30.37,WNW,284,2.0,6.0,93,0.00,CLR,,0.00,WeatherDisplay:10.37,2013-09-17 07:41:00,
2013-09-17 03:51:00,40.4,38.6,30.37,WNW,288,2.0,5.0,93,0.00,CLR,,0.00,WeatherDisplay:10.37,2013-09-17 07:51:00,
2013-09-17 04:01:00,40.6,38.7,30.37,WNW,287,0.0,5.0,93,0.00,CLR,,0.00,WeatherDisplay:10.37,2013-09-17 08:01:00,
2013-09-17 04:11:00,40.5,38.7,30.38,WNW,301,0.0,5.0,93,0.00,CLR,,0.00,WeatherDisplay:10.37,2013-09-17 08:11:00,
2013-09-17 04:21:00,40.5,38.6,30.38,WNW,299,0.0,0.0,93,0.00,CLR,,0.00,WeatherDisplay:10.37,2013-09-17 08:21:00,
2013-09-17 04:31:00,40.4,38.5,30.38,WNW,299,0.0,0.0,93,0.00,CLR,,0.00,WeatherDisplay:10.37,2013-09-17 08:31:00,
2013-09-17 04:41:00,40.2,38.3,30.38,WNW,299,0.0,2.0,93,0.00,CLR,,0.00,WeatherDisplay:10.37,2013-09-17 08:41:00,
2013-09-17 04:51:00,39.9,38.1,30.38,WNW,299,0.0,3.0,93,0.00,CLR,,0.00,WeatherDisplay:10.37,2013-09-17 08:51:00,
2013-09-17 05:01:00,39.8,37.9,30.39,WNW,299,1.0,3.0,93,0.00,CLR,,0.00,WeatherDisplay:10.37,2013-09-17 09:01:00,
2013-09-17 05:11:00,39.8,37.9,30.39,WNW,298,3.0,5.0,93,0.00,FEW,,0.00,WeatherDisplay:10.37,2013-09-17 09:11:00,
2013-09-17 05:21:00,39.8,37.9,30.40,NW,315,2.0,3.0,93,0.00,FEW,,0.00,WeatherDisplay:10.37,2013-09-17 09:21:00,
2013-09-17 05:31:00,39.8,37.9,30.40,WNW,290,2.0,6.0,93,0.00,FEW,,0.00,WeatherDisplay:10.37,2013-09-17 09:31:00,
2013-09-17 05:41:00,39.8,37.9,30.40,WNW,287,2.0,5.0,93,0.00,FEW,,0.00,WeatherDisplay:10.37,2013-09-17 09:41:00,
2013-09-17 05:51:00,39.7,37.8,30.41,WNW,287,2.0,5.0,93,0.00,FEW,,0.00,WeatherDisplay:10.37,2013-09-17 09:51:00,
2013-09-17 06:01:00,39.7,37.8,30.41,WNW,287,1.0,3.0,93,0.00,FEW,,0.00,WeatherDisplay:10.37,2013-09-17 10:01:00,
2013-09-17 06:11:00,39.6,37.7,30.41,WNW,287,1.0,5.0,93,0.00,CLR,,0.00,WeatherDisplay:10.37,2013-09-17 10:11:00,
2013-09-17 06:21:00,39.6,37.7,30.42,WNW,285,1.0,5.0,93,0.00,CLR,,0.00,WeatherDisplay:10.37,2013-09-17 10:21:00,
2013-09-17 06:31:00,39.6,38.0,30.42,West,281,1.0,5.0,94,0.00,CLR,,0.00,WeatherDisplay:10.37,2013-09-17 10:31:00,
2013-09-17 06:41:00,39.6,38.0,30.42,West,281,1.0,3.0,94,0.00,CLR,,0.00,WeatherDisplay:10.37,2013-09-17 10:41:00,
2013-09-17 06:51:00,39.5,37.6,30.43,West,281,0.0,2.0,93,0.00,CLR,,0.00,WeatherDisplay:10.37,2013-09-17 10:51:00,
2013-09-17 07:01:00,39.4,37.5,30.43,West,281,0.0,0.0,93,0.00,CLR,,0.00,WeatherDisplay:10.37,2013-09-17 11:01:00,
2013-09-17 07:11:00,39.7,38.1,30.43,West,281,0.0,0.0,94,0.00,SCT,,0.00,WeatherDisplay:10.37,2013-09-17 11:11:00,
2013-09-17 07:21:00,41.2,39.9,30.44,West,281,0.0,2.0,95,0.00,SCT,,0.00,WeatherDisplay:10.37,2013-09-17 11:21:00,
2013-09-17 07:31:00,42.2,40.6,30.44,WNW,282,1.0,3.0,94,0.00,SCT,,0.00,WeatherDisplay:10.37,2013-09-17 11:31:00,
2013-09-17 07:41:00,43.2,41.3,30.44,West,278,1.0,5.0,93,0.00,SCT,,0.00,WeatherDisplay:10.37,2013-09-17 11:41:00,
2013-09-17 07:51:00,44.0,41.8,30.44,WNW,301,3.0,6.0,92,0.00,SCT,,0.00,WeatherDisplay:10.37,2013-09-17 11:51:00,
2013-09-17 08:01:00,44.5,41.5,30.44,NW,318,5.0,6.0,89,0.00,SCT,,0.00,WeatherDisplay:10.37,2013-09-17 12:01:00,
2013-09-17 08:11:00,45.2,41.9,30.45,WNW,294,5.0,6.0,88,0.00,FEW,,0.00,WeatherDisplay:10.37,2013-09-17 12:11:00,
2013-09-17 08:21:00,46.0,41.8,30.45,NW,312,6.0,10.0,85,0.00,FEW,,0.00,WeatherDisplay:10.37,2013-09-17 12:21:00,
2013-09-17 08:31:00,46.1,41.8,30.46,NW,323,2.0,8.0,85,0.00,FEW,,0.00,WeatherDisplay:10.37,2013-09-17 12:31:00,
2013-09-17 08:41:00,46.7,41.8,30.47,NW,309,1.0,10.0,83,0.00,FEW,,0.00,WeatherDisplay:10.37,2013-09-17 12:41:00,
2013-09-17 08:51:00,47.5,42.6,30.47,NNW,334,5.0,10.0,83,0.00,FEW,,0.00,WeatherDisplay:10.37,2013-09-17 12:51:00,
2013-09-17 09:01:00,47.6,42.4,30.47,WNW,303,2.0,8.0,82,0.00,FEW,,0.00,WeatherDisplay:10.37,2013-09-17 13:01:00,
2013-09-17 09:11:00,47.9,42.7,30.47,NW,323,6.0,9.0,82,0.00,FEW,,0.00,WeatherDisplay:10.37,2013-09-17 13:11:00,
2013-09-17 09:21:00,48.5,42.9,30.48,NNW,336,2.0,9.0,81,0.00,FEW,,0.00,WeatherDisplay:10.37,2013-09-17 13:21:00,
2013-09-17 09:31:00,48.3,42.1,30.48,NW,318,7.0,10.0,79,0.00,FEW,,0.00,WeatherDisplay:10.37,2013-09-17 13:31:00,
2013-09-17 09:41:00,48.8,42.9,30.48,NNW,327,3.0,10.0,80,0.00,FEW,,0.00,WeatherDisplay:10.37,2013-09-17 13:41:00,
2013-09-17 09:51:00,49.4,43.5,30.48,North,352,9.0,14.0,80,0.00,FEW,,0.00,WeatherDisplay:10.37,2013-09-17 13:51:00,
2013-09-17 10:01:00,49.8,43.2,30.48,NNW,336,6.0,9.0,78,0.00,FEW,,0.00,WeatherDisplay:10.37,2013-09-17 14:01:00,
2013-09-17 10:11:00,50.7,43.8,30.48,North,354,7.0,10.0,77,0.00,FEW,,0.00,WeatherDisplay:10.37,2013-09-17 14:11:00,
2013-09-17 10:21:00,50.9,43.6,30.48,NNW,346,8.0,12.0,76,0.00,FEW,,0.00,WeatherDisplay:10.37,2013-09-17 14:21:00,
2013-09-17 10:31:00,51.4,43.7,30.48,NNW,340,6.0,12.0,75,0.00,FEW,,0.00,WeatherDisplay:10.37,2013-09-17 14:31:00,
2013-09-17 10:41:00,51.4,42.6,30.48,North,6,3.0,10.0,72,0.00,FEW,,0.00,WeatherDisplay:10.37,2013-09-17 14:41:00,
2013-09-17 10:51:00,51.9,43.9,30.48,NNW,327,6.0,10.0,74,0.00,FEW,,0.00,WeatherDisplay:10.37,2013-09-17 14:51:00,
2013-09-17 11:01:00,52.4,43.6,30.48,NNW,332,2.0,12.0,72,0.00,FEW,,0.00,WeatherDisplay:10.37,2013-09-17 15:01:00,
2013-09-17 11:11:00,52.9,43.4,30.48,NNW,335,12.0,15.0,70,0.00,FEW,,0.00,WeatherDisplay:10.37,2013-09-17 15:11:00,
2013-09-17 11:21:00,53.5,42.8,30.47,North,350,2.0,9.0,67,0.00,FEW,,0.00,WeatherDisplay:10.37,2013-09-17 15:21:00,
2013-09-17 11:31:00,54.4,43.7,30.47,NNW,329,1.0,12.0,67,0.00,FEW,,0.00,WeatherDisplay:10.37,2013-09-17 15:31:00,
2013-09-17 11:41:00,54.3,43.6,30.47,North,352,10.0,15.0,67,0.00,FEW,,0.00,WeatherDisplay:10.37,2013-09-17 15:41:00,
2013-09-17 11:51:00,54.9,44.1,30.46,NNW,333,8.0,10.0,67,0.00,FEW,,0.00,WeatherDisplay:10.37,2013-09-17 15:51:00,
2013-09-17 12:01:00,55.9,42.2,30.46,NE,39,3.0,10.0,60,0.00,FEW,,0.00,WeatherDisplay:10.37,2013-09-17 16:01:00,
2013-09-17 12:11:00,56.0,42.7,30.46,North,8,9.0,10.0,61,0.00,FEW,,0.00,WeatherDisplay:10.37,2013-09-17 16:11:00,
2013-09-17 12:21:00,56.2,42.1,30.46,North,7,5.0,12.0,59,0.00,FEW,,0.00,WeatherDisplay:10.37,2013-09-17 16:21:00,
2013-09-17 12:31:00,56.3,42.1,30.46,NNE,25,10.0,14.0,59,0.00,FEW,,0.00,WeatherDisplay:10.37,2013-09-17 16:31:00,
2013-09-17 12:41:00,56.7,43.0,30.45,North,352,2.0,14.0,60,0.00,FEW,,0.00,WeatherDisplay:10.37,2013-09-17 16:41:00,
2013-09-17 12:51:00,57.2,43.0,30.44,NNW,345,7.0,15.0,59,0.00,FEW,,0.00,WeatherDisplay:10.37,2013-09-17 16:51:00,
2013-09-17 13:01:00,57.3,43.6,30.44,NNW,335,8.0,15.0,60,0.00,FEW,,0.00,WeatherDisplay:10.37,2013-09-17 17:01:00,
2013-09-17 13:11:00,57.8,43.1,30.44,NNE,14,5.0,8.0,58,0.00,FEW,,0.00,WeatherDisplay:10.37,2013-09-17 17:11:00,
2013-09-17 13:21:00,57.8,43.6,30.44,North,5,3.0,12.0,59,0.00,FEW,,0.00,WeatherDisplay:10.37,2013-09-17 17:21:00,
2013-09-17 13:31:00,58.5,43.8,30.43,NNW,342,8.0,15.0,58,0.00,FEW,,0.00,WeatherDisplay:10.37,2013-09-17 17:31:00,
2013-09-17 13:41:00,58.9,44.6,30.43,North,8,7.0,14.0,59,0.00,FEW,,0.00,WeatherDisplay:10.37,2013-09-17 17:41:00,
2013-09-17 13:51:00,58.8,43.6,30.42,NNW,331,9.0,12.0,57,0.00,FEW,,0.00,WeatherDisplay:10.37,2013-09-17 17:51:00,
2013-09-17 14:01:00,58.9,43.7,30.42,NNW,334,10.0,14.0,57,0.00,FEW,,0.00,WeatherDisplay:10.37,2013-09-17 18:01:00,
2013-09-17 14:11:00,59.4,43.7,30.41,NNW,342,7.0,10.0,56,0.00,FEW,,0.00,WeatherDisplay:10.37,2013-09-17 18:11:00,
2013-09-17 14:21:00,59.8,43.1,30.41,North,356,8.0,14.0,54,0.00,FEW,,0.00,WeatherDisplay:10.37,2013-09-17 18:21:00,
2013-09-17 14:31:00,60.0,43.3,30.40,NNE,23,0.0,12.0,54,0.00,FEW,,0.00,WeatherDisplay:10.37,2013-09-17 18:31:00,
2013-09-17 14:41:00,60.8,44.0,30.40,NW,317,7.0,10.0,54,0.00,FEW,,0.00,WeatherDisplay:10.37,2013-09-17 18:41:00,
2013-09-17 14:51:00,61.1,43.8,30.40,NNE,29,6.0,9.0,53,0.00,FEW,,0.00,WeatherDisplay:10.37,2013-09-17 18:51:00,
2013-09-17 15:01:00,61.3,43.0,30.40,NNW,343,7.0,12.0,51,0.00,FEW,,0.00,WeatherDisplay:10.37,2013-09-17 19:01:00,
2013-09-17 15:11:00,61.3,44.0,30.39,NW,315,6.0,9.0,53,0.00,CLR,,0.00,WeatherDisplay:10.37,2013-09-17 19:11:00,
2013-09-17 15:21:00,61.9,44.1,30.39,West,268,6.0,9.0,52,0.00,CLR,,0.00,WeatherDisplay:10.37,2013-09-17 19:21:00,
2013-09-17 15:31:00,62.5,45.1,30.39,NNW,338,3.0,10.0,53,0.00,CLR,,0.00,WeatherDisplay:10.37,2013-09-17 19:31:00,
2013-09-17 15:41:00,62.9,45.0,30.38,North,356,6.0,9.0,52,0.00,CLR,,0.00,WeatherDisplay:10.37,2013-09-17 19:41:00,
2013-09-17 15:51:00,63.3,45.3,30.38,NNW,345,2.0,8.0,52,0.00,CLR,,0.00,WeatherDisplay:10.37,2013-09-17 19:51:00,
2013-09-17 16:01:00,63.0,44.6,30.38,North,356,5.0,8.0,51,0.00,CLR,,0.00,WeatherDisplay:10.37,2013-09-17 20:01:00,
2013-09-17 16:11:00,63.0,44.5,30.37,North,355,8.0,10.0,51,0.00,CLR,,0.00,WeatherDisplay:10.37,2013-09-17 20:11:00,
2013-09-17 16:21:00,63.3,44.9,30.37,North,349,3.0,9.0,51,0.00,CLR,,0.00,WeatherDisplay:10.37,2013-09-17 20:21:00,
2013-09-17 16:31:00,63.2,44.8,30.37,NW,308,3.0,8.0,51,0.00,CLR,,0.00,WeatherDisplay:10.37,2013-09-17 20:31:00,
2013-09-17 16:41:00,63.4,45.0,30.37,NNW,335,3.0,9.0,51,0.00,CLR,,0.00,WeatherDisplay:10.37,2013-09-17 20:41:00,
2013-09-17 16:51:00,63.1,44.7,30.37,NNW,337,5.0,9.0,51,0.00,CLR,,0.00,WeatherDisplay:10.37,2013-09-17 20:51:00,
2013-09-17 17:01:00,63.2,44.2,30.36,North,11,7.0,9.0,50,0.00,CLR,,0.00,WeatherDisplay:10.37,2013-09-17 21:01:00,
2013-09-17 17:11:00,63.1,45.2,30.36,WNW,300,3.0,6.0,52,0.00,CLR,,0.00,WeatherDisplay:10.37,2013-09-17 21:11:00,
2013-09-17 17:21:00,62.3,42.9,30.36,NW,326,5.0,8.0,49,0.00,CLR,,0.00,WeatherDisplay:10.37,2013-09-17 21:21:00,
2013-09-17 17:31:00,62.0,44.2,30.36,NW,325,0.0,3.0,52,0.00,CLR,,0.00,WeatherDisplay:10.37,2013-09-17 21:31:00,
2013-09-17 17:41:00,61.5,43.7,30.36,North,351,2.0,8.0,52,0.00,CLR,,0.00,WeatherDisplay:10.37,2013-09-17 21:41:00,
2013-09-17 17:51:00,60.6,45.7,30.36,NNW,345,1.0,5.0,58,0.00,CLR,,0.00,WeatherDisplay:10.37,2013-09-17 21:51:00,
2013-09-17 18:01:00,59.1,45.7,30.36,NNW,338,1.0,3.0,61,0.00,CLR,,0.00,WeatherDisplay:10.37,2013-09-17 22:01:00,
2013-09-17 18:11:00,58.2,47.3,30.36,NNW,338,0.0,2.0,67,0.00,CLR,,0.00,WeatherDisplay:10.37,2013-09-17 22:11:00,
2013-09-17 18:21:00,57.9,44.9,30.36,NNW,333,0.0,6.0,62,0.00,CLR,,0.00,WeatherDisplay:10.37,2013-09-17 22:21:00,
2013-09-17 18:31:00,56.5,46.9,30.36,NNW,331,0.0,2.0,70,0.00,CLR,,0.00,WeatherDisplay:10.37,2013-09-17 22:31:00,
2013-09-17 18:41:00,55.0,47.3,30.35,NNW,331,0.0,0.0,75,0.00,CLR,,0.00,WeatherDisplay:10.37,2013-09-17 22:41:00,
2013-09-17 18:51:00,54.0,47.0,30.35,NNW,331,0.0,0.0,77,0.00,CLR,,0.00,WeatherDisplay:10.37,2013-09-17 22:51:00,
2013-09-17 19:01:00,53.1,46.4,30.35,NNW,331,0.0,0.0,78,0.00,CLR,,0.00,WeatherDisplay:10.37,2013-09-17 23:01:00,
2013-09-17 19:11:00,52.2,45.9,30.34,NNW,331,0.0,0.0,79,0.00,CLR,,0.00,WeatherDisplay:10.37,2013-09-17 23:11:00,
2013-09-17 19:21:00,51.5,45.8,30.34,NNW,331,0.0,0.0,81,0.00,CLR,,0.00,WeatherDisplay:10.37,2013-09-17 23:21:00,
2013-09-17 19:31:00,50.7,46.0,30.34,NNW,331,0.0,0.0,84,0.00,CLR,,0.00,WeatherDisplay:10.37,2013-09-17 23:31:00,
2013-09-17 19:41:00,50.2,46.2,30.35,NNW,331,0.0,0.0,86,0.00,CLR,,0.00,WeatherDisplay:10.37,2013-09-17 23:41:00,
2013-09-17 19:51:00,49.7,46.0,30.35,NNW,331,0.0,0.0,87,0.00,CLR,,0.00,WeatherDisplay:10.37,2013-09-17 23:51:00,
2013-09-17 20:01:00,49.5,45.4,30.35,NNW,331,0.0,0.0,86,0.00,CLR,,0.00,WeatherDisplay:10.37,2013-09-18 00:01:00,
2013-09-17 20:11:00,49.1,45.4,30.35,NNW,331,0.0,0.0,87,0.00,CLR,,0.00,WeatherDisplay:10.37,2013-09-18 00:11:00,
2013-09-17 20:21:00,48.8,45.1,30.35,NNW,331,0.0,0.0,87,0.00,CLR,,0.00,WeatherDisplay:10.37,2013-09-18 00:21:00,
2013-09-17 20:31:00,48.8,44.8,30.35,NNW,331,0.0,0.0,86,0.00,CLR,,0.00,WeatherDisplay:10.37,2013-09-18 00:31:00,
2013-09-17 20:41:00,48.5,45.1,30.35,NNW,331,0.0,0.0,88,0.00,CLR,,0.00,WeatherDisplay:10.37,2013-09-18 00:41:00,
2013-09-17 20:51:00,48.1,44.7,30.35,NNW,331,0.0,0.0,88,0.00,CLR,,0.00,WeatherDisplay:10.37,2013-09-18 00:51:00,
2013-09-17 21:01:00,47.8,44.7,30.35,NNW,331,0.0,2.0,89,0.00,CLR,,0.00,WeatherDisplay:10.37,2013-09-18 01:01:00,
2013-09-17 21:11:00,47.8,45.0,30.35,NNW,331,0.0,0.0,90,0.00,CLR,,0.00,WeatherDisplay:10.37,2013-09-18 01:11:00,
2013-09-17 21:21:00,47.6,44.8,30.35,NNW,331,0.0,0.0,90,0.00,CLR,,0.00,WeatherDisplay:10.37,2013-09-18 01:21:00,
2013-09-17 21:31:00,47.4,44.9,30.35,NNW,331,0.0,0.0,91,0.00,CLR,,0.00,WeatherDisplay:10.37,2013-09-18 01:31:00,
2013-09-17 21:41:00,47.3,44.8,30.35,NNW,331,0.0,2.0,91,0.00,CLR,,0.00,WeatherDisplay:10.37,2013-09-18 01:41:00,
2013-09-17 21:51:00,47.1,44.6,30.35,NNW,331,0.0,0.0,91,0.00,CLR,,0.00,WeatherDisplay:10.37,2013-09-18 01:51:00,
2013-09-17 22:01:00,46.9,44.7,30.35,NNW,331,0.0,0.0,92,0.00,CLR,,0.00,WeatherDisplay:10.37,2013-09-18 02:01:00,
2013-09-17 22:11:00,46.8,44.6,30.35,NNW,331,0.0,0.0,92,0.00,CLR,,0.00,WeatherDisplay:10.37,2013-09-18 02:11:00,
2013-09-17 22:21:00,46.5,44.3,30.35,NNW,331,0.0,0.0,92,0.00,CLR,,0.00,WeatherDisplay:10.37,2013-09-18 02:21:00,
2013-09-17 22:31:00,46.7,44.8,30.35,NNW,331,0.0,0.0,93,0.00,CLR,,0.00,WeatherDisplay:10.37,2013-09-18 02:31:00,
2013-09-17 22:41:00,46.7,44.8,30.35,NNW,331,0.0,0.0,93,0.00,CLR,,0.00,WeatherDisplay:10.37,2013-09-18 02:41:00,
2013-09-17 22:51:00,46.3,44.4,30.35,NNW,331,0.0,0.0,93,0.00,CLR,,0.00,WeatherDisplay:10.37,2013-09-18 02:51:00,
2013-09-17 23:01:00,46.0,44.1,30.35,NNW,331,0.0,0.0,93,0.00,CLR,,0.00,WeatherDisplay:10.37,2013-09-18 03:01:00,
2013-09-17 23:11:00,45.8,43.9,30.35,NNW,331,0.0,2.0,93,0.00,CLR,,0.00,WeatherDisplay:10.37,2013-09-18 03:11:00,
2013-09-17 23:21:00,45.6,43.7,30.35,NNW,331,0.0,0.0,93,0.00,CLR,,0.00,WeatherDisplay:10.37,2013-09-18 03:21:00,
2013-09-17 23:31:00,45.6,43.7,30.35,NNW,331,0.0,3.0,93,0.00,CLR,,0.00,WeatherDisplay:10.37,2013-09-18 03:31:00,
2013-09-17 23:41:00,45.4,43.8,30.35,NNW,331,0.0,0.0,94,0.00,CLR,,0.00,WeatherDisplay:10.37,2013-09-18 03:41:00,
2013-09-17 23:51:00,45.1,43.5,30.35,NNW,331,0.0,0.0,94,0.00,CLR,,0.00,WeatherDisplay:10.37,2013-09-18 03:51:00,